Agadir Al Massira, Morocco

8:57 PM WEST on October 22, 2017 (GMT +0100)
Agadir Al Massira

Weather History for GMAD - April, 2013

Change the Weather History Date:

Monday, April 29, 2013

  Actual Average Record
Temperature  
Mean Temperature 62 °F -  
Max Temperature 73 °F - - ()
Min Temperature 52 °F - - ()
Degree Days  
Heating Degree Days 2    
Growing Degree Days 12 (Base 50)    
Moisture  
Dew Point 42 °F    
Average Humidity 48    
Maximum Humidity 72    
Minimum Humidity 17    
Precipitation  
Precipitation 0.00 in - - ()
Sea Level Pressure  
Sea Level Pressure 29.78 in    
Wind  
Wind Speed 7 mph ()    
Max Wind Speed 14 mph    
Max Gust Speed -    
Visibility 6.0 miles    
Events      
T = Trace of Precipitation, MM = Missing Value Source: Averaged Metar Reports

Daily Weather History Graph

Daily Weather History Graph

Search for Another Location

Airport or City:

Trip Planner

Search our weather history database for the weather conditions in past years. The results will help you decide how hot, cold, wet, or windy it might be!

Date:

Astronomy

Apr. 29, 2013 Rise Set
Actual Time 6:56 AM WEST 8:14 PM WEST
Civil Twilight 6:30 AM WEST 8:39 PM WEST
Nautical Twilight 6:00 AM WEST 9:09 PM WEST
Astronomical Twilight 5:29 AM WEST 9:41 PM WEST
Moon No Moon Rise 10:09 AM WEST (4/29)
Length of Visible Light 14h 08m
Length of Day
13h 18m
Waning Gibbous, 82% of the Moon is Illuminated
Apr 29
Waning Gibbous
May 2
Last Quarter
May 10
New
May 18
First Quarter
May 25
Full

Hourly Weather History & Observations

Time (WEST) Temp. Dew Point Humidity Pressure Visibility Wind Dir Wind Speed Gust Speed Precip Events Conditions
12:00 AM 59.0 °F 46.4 °F 63% 29.77 in - SSE 8.1 mph - N/A   Clear
1:00 AM 57 °F 45 °F 55% 29.78 in 6 mi SSE 6.9 mph - -  
1:00 AM 57.2 °F 44.6 °F 63% 29.77 in - SSE 6.9 mph - N/A   Clear
2:00 AM 57.2 °F 44.6 °F 63% 0.00 in - South 8.1 mph - N/A   Clear
3:00 AM 55.4 °F 44.6 °F 67% 29.74 in - South 6.9 mph - N/A   Clear
4:00 AM 54 °F 44 °F 59% 29.75 in 6 mi SSE 5.8 mph - -  
4:00 AM 53.6 °F 44.6 °F 72% 29.74 in - SSE 5.8 mph - N/A   Clear
5:00 AM 53.6 °F 42.8 °F 67% 29.74 in - South 8.1 mph - N/A   Clear
6:00 AM 53.6 °F 42.8 °F 67% 29.74 in - Variable 2.3 mph - N/A   Clear
7:00 AM 54 °F 41 °F 52% 29.79 in 6 mi South 6.9 mph - -  
7:00 AM 53.6 °F 41.0 °F 62% 29.77 in - South 6.9 mph - N/A   Clear
8:00 AM 55.4 °F 41.0 °F 58% 29.80 in - Variable 1.2 mph - N/A   Clear
9:00 AM 59.0 °F 41.0 °F 51% 29.83 in - South 10.4 mph - N/A   Clear
10:00 AM 62 °F 42 °F 35% 29.83 in 6 mi West 2.3 mph - -  
10:00 AM 62.6 °F 41.0 °F 45% 29.83 in - Variable 2.3 mph - N/A   Clear
11:00 AM 64.4 °F 41.0 °F 42% 29.83 in - SSE 3.5 mph - N/A   Clear
12:00 PM 68.0 °F 41.0 °F 37% 29.83 in - Variable 2.3 mph - N/A   Clear
1:00 PM 69 °F 39 °F 22% 29.82 in 6 mi North 3.5 mph - -  
1:00 PM 69.8 °F 39.2 °F 33% 29.80 in - North 3.5 mph - N/A   Clear
2:00 PM 71.6 °F 37.4 °F 29% 29.80 in - SSW 9.2 mph - N/A   Clear
3:00 PM 71.6 °F 37.4 °F 29% 29.77 in - SW 9.2 mph - N/A   Clear
4:00 PM 73 °F 37 °F 17% 29.76 in 6 mi WSW 12.7 mph - -  
4:00 PM 73.4 °F 35.6 °F 25% 29.77 in - WSW 11.5 mph - N/A   Clear
5:00 PM 71.6 °F 41.0 °F 33% 29.74 in - WSW 11.5 mph - N/A   Clear
6:00 PM 71.6 °F 41.0 °F 33% 29.74 in - WSW 12.7 mph - N/A   Clear
7:00 PM 69 °F 43 °F 27% 29.73 in 6 mi SSW 10.4 mph - -  
7:00 PM 68.0 °F 42.8 °F 40% 29.74 in - SSW 10.4 mph - N/A   Clear
8:00 PM 64.4 °F 44.6 °F 49% 29.74 in - South 11.5 mph - N/A   Clear
9:00 PM 60.8 °F 44.6 °F 55% 29.74 in - South 12.7 mph - N/A   Clear
10:00 PM 59 °F 46 °F 51% 29.80 in 6 mi South 13.8 mph - -  
10:00 PM 59.0 °F 46.4 °F 63% 29.80 in - South 13.8 mph - N/A   Clear
11:00 PM 59.0 °F 46.4 °F 63% 29.83 in - South 13.8 mph - N/A   Clear